Location: Black Creek
(40.9000°S, 175.5500°E)
Time: 04:26:54
(UTC+00:00)

BREEZE-M DEB (TANK) - Pass Details

Date: 04 August 2024
Orbit: 661 x 22265 km, 51.1° (Epoch: 06 September)

Event Time Altitude Azimuth Distance (km) Brightness Sun altitude
Rises 17:57:21 0° 299° (WNW) 9,931 8.2 -15.9°
Reaches altitude 10° 18:06:46 10° 296° (WNW) 6,401 7.2 -14.2°
Maximum altitude 18:19:46 65° 213° (SSW) 1,249 3.9 -11.8°
Drops below altitude 10° 18:24:10 10° 130° (SE) 2,287 6.0 -11.0°
Sets 18:25:51 0° 125° (SE) 3,064 6.8 -10.6°
